Regional Weather Roundup
Issued by NWS

Home | Current Version | Previous Version | Text Only | Print | Product List | Glossary On
Versions: 1 2 3 4 5 6 7 8 9 10 11 12 13 14 15 16 17 18 19 20 21 22 23 24 25 26 27 28 29 30 31 32 33 34 35 36 37 38 39 40 41 42 43 44 45 46 47 48 49 50
000
ASUS44 KJAN 300610
RWRMS

MISSISSIPPI HOURLY WEATHER ROUNDUP
NATIONAL WEATHER SERVICE JACKSON MS
100 AM CDT SUN AUG 30 2015

NOTE: "FAIR: INDICATES FEW OR NO CLOUDS BELOW 12,000 FEET WITH NO
SIGNIFICANT WEATHER AND/OR OBSTRUCTIONS TO VISIBILITY.

MSZ001>002-007>008-010>013-018>021-025>028-034>036-300700-
NORTHWEST MISSISSIPPI

CITY           SKY/WX    TMP DP  RH WIND       PRES   REMARKS
CLARKSDALE       N/A     75  73  94 SE5       30.03R
CLEVELAND      FAIR      79  69  72 SE6       30.00F
GREENWOOD      FAIR      75  67  76 SE8       30.02S
6HR MIN TEMP:  75; 6HR MAX TEMP:  86;

GREENVILLE     FAIR      75  67  76 E5        29.99F
6HR MIN TEMP:  75; 6HR MAX TEMP:  86;

OLIVE BRANCH   PTCLDY    75  73  94 SE10      30.05S
OXFORD         FAIR      72  66  83 SE7       30.07S
TUNICA         FAIR      75  70  83 SE6       30.03S
$$

MSZ003>006-009-014>017-022>024-029>033-037>039-300700-
NORTHEAST MISSISSIPPI

CITY           SKY/WX    TMP DP  RH WIND       PRES   REMARKS
COLUMBUS AFB   FAIR      71  68  90 NE2       30.06S
6HR MIN TEMP:  71; 6HR MAX TEMP:  79;

CORINTH        FAIR      70  66  88 CALM      30.06F
GOLDN TRIANGLE FAIR      73  64  73 SE8       30.06S
STARKVILLE     FAIR      70  68  94 E5        30.06F
TUPELO         FAIR      72  67  84 S5        30.06F
6HR MIN TEMP:  71; 6HR MAX TEMP:  85;

$$

MSZ040-058-300700-
CENTRAL MISSISSIPPI

CITY           SKY/WX    TMP DP  RH WIND       PRES   REMARKS
JACKSON INTL   FAIR      76  68  76 S9        30.02F
6HR MIN TEMP:  73; 6HR MAX TEMP:  87;

JACKSON HAWKNS FAIR      74  65  73 SE3       30.03F
6HR MIN TEMP:  72; 6HR MAX TEMP:  87;

MERIDIAN KEY   FAIR      76  69  79 SE5       30.05F
6HR MIN TEMP:  76; 6HR MAX TEMP:  83;

MERIDIAN NAS   FAIR      74  69  85 NE7       30.07S
6HR MIN TEMP:  74; 6HR MAX TEMP:  82;

VICKSBURG      FAIR      68  64  87 CALM      30.01S
6HR MIN TEMP:  67; 6HR MAX TEMP:  82;

$$

MSZ059>079-300700-
SOUTH MISSISSIPPI

CITY           SKY/WX    TMP DP  RH WIND       PRES   REMARKS
BROOKHAVEN     FAIR      70  64  83 CALM      30.06S
HATTIESBURG    FAIR      76  70  82 CALM      30.05S
6HR MIN TEMP:  76; 6HR MAX TEMP:  88;

MCCOMB         FAIR      71  67  87 CALM      30.04S
6HR MIN TEMP:  70; 6HR MAX TEMP:  85;

NATCHEZ        FAIR      73  64  73 SE6       30.03S
6HR MIN TEMP:  73; 6HR MAX TEMP:  86;

PINE BELT      FAIR      73  66  78 S3        30.05F
6HR MIN TEMP:  72; 6HR MAX TEMP:  82;

$$

MSZ080>082-300700-
COASTAL MISSISSIPPI

CITY           SKY/WX    TMP DP  RH WIND       PRES   REMARKS
BILOXI         MOCLDY    78  71  81 N2        30.02F
6HR MIN TEMP:  77; 6HR MAX TEMP:  82;

PASCAGOULA     FAIR      69  69 100 CALM      30.03F FOG
6HR MIN TEMP:  69; 6HR MAX TEMP:  82;

GULFPORT       FAIR      73  68  84 CALM      30.02F
6HR MIN TEMP:  73; 6HR MAX TEMP:  82;

$$



USA.gov is the U.S. government's official web portal to all federal, state and local government web resources and services.